"startDT [UTC]","vpos","CH4 [ppm]","stdev(CH4) [ppm]","CO2 [ppm]","stdev(CO2) [ppm]","H2O_reported [%]","stdev(H2O_reported)","CavityPressure [torr]","CavityTemp [C]","OutletValve","CH4_dry [ppm]","CO2_dry [ppm]","DasTemp [C]","EtalonTemp [C]","WarmBoxTemp [C]","MPVPosition","T_ECpre [C]","T_EC1 [C]","T_EC2 [C]","p_inlet [hPa]","p_in [hPa]","p_out [hPa]","T_inlet [C]","RH_inlet [%]","dwpt_inlet [C]","T_vent [C]","RH_vent [%]","dwpt_vent [C]","flow_vent [l min-1]","flow_inlet [l min-1]","dwpt_sample [C]","T_room [C]"
2015-03-31 00:00:00,0.0,1.92516,0.00031,404.515,0.042,0.1524,0.0016,139.998,44.998,32043.85216,1.92807,405.262,35.235,45.066,45.000,0.00,0.09,-272.71,-272.77,5,667,-4,22.9,4.1,-20.9,22.8,4.3,-20.6,5.73,1.89,-12.4,27.7
2015-03-31 00:01:00,0.0,1.92505,0.00037,404.456,0.046,0.1517,0.0021,140.002,44.998,32042.10837,1.92795,405.197,35.096,45.067,45.000,0.00,0.09,-272.71,-272.77,4,668,-4,22.9,4.1,-20.9,22.9,4.3,-20.6,5.73,1.74,-12.4,27.7
2015-03-31 00:02:00,0.0,1.92503,0.00030,404.386,0.050,0.1521,0.0019,140.000,44.998,32039.41994,1.92792,405.128,34.948,45.067,45.000,0.00,0.09,-272.71,-272.77,4,668,-4,23.0,4.1,-20.9,22.9,4.3,-20.6,5.73,1.62,-12.4,27.7
2015-03-31 00:03:00,0.0,1.92484,0.00031,404.365,0.046,0.1519,0.0013,140.001,44.998,32038.89406,1.92774,405.107,34.795,45.067,45.000,0.00,0.09,-272.72,-272.78,5,668,-4,23.0,4.1,-20.9,22.9,4.3,-20.6,5.73,1.89,-12.4,27.6
2015-03-31 00:04:00,0.0,1.92499,0.00042,404.258,0.036,0.1514,0.0020,139.999,44.998,32033.52664,1.92786,404.998,34.667,45.067,45.000,0.00,0.09,-272.71,-272.77,3,669,-4,23.0,4.1,-20.9,22.9,4.3,-20.5,5.73,1.68,-12.4,27.4
2015-03-31 00:05:00,0.0,1.92497,0.00039,404.280,0.033,0.1512,0.0020,139.999,44.997,32030.36507,1.92786,405.018,34.532,45.067,45.000,0.00,0.09,-272.71,-272.77,5,670,-4,23.0,4.1,-20.9,22.9,4.3,-20.6,5.73,1.75,-12.4,27.2
2015-03-31 00:06:00,0.0,1.92482,0.00032,404.269,0.033,0.1515,0.0014,139.998,44.997,32026.87149,1.92769,405.007,34.360,45.067,44.999,0.00,0.09,-272.72,-272.77,3,670,-4,23.0,4.1,-20.9,22.8,4.3,-20.5,5.73,1.77,-12.4,27.1
2015-03-31 00:07:00,0.0,1.92476,0.00035,404.288,0.045,0.1522,0.0018,139.997,44.997,32022.95448,1.92769,405.029,34.155,45.066,44.999,0.00,0.09,-272.71,-272.77,5,671,-4,23.0,4.1,-20.9,22.8,4.3,-20.5,5.73,1.70,-12.4,27.0
2015-03-31 00:08:00,0.0,1.92504,0.00042,404.932,0.260,0.1537,0.0021,140.001,44.997,32018.55900,1.92794,405.661,33.935,45.066,44.999,0.00,0.09,-272.72,-272.76,3,671,-4,23.0,4.2,-20.8,22.8,4.3,-20.5,5.73,1.82,-12.4,27.0
2015-03-31 00:09:00,0.0,1.92476,0.00029,405.018,0.207,0.1540,0.0014,140.001,44.997,32014.39882,1.92770,405.783,33.733,45.067,45.000,0.00,0.09,-272.72,-272.77,5,671,-4,22.9,4.2,-20.7,22.8,4.3,-20.5,5.73,1.65,-12.4,27.1
2015-03-31 00:10:00,0.0,1.92478,0.00028,404.481,0.063,0.1549,0.0014,140.001,44.997,32008.01494,1.92769,405.242,33.566,45.067,45.000,0.00,0.09,-272.72,-272.77,4,671,-4,22.9,4.2,-20.8,22.7,4.3,-20.5,5.73,1.89,-12.4,27.1
2015-03-31 00:11:00,0.0,1.92432,0.00039,404.341,0.039,0.1526,0.0013,139.999,44.998,32003.36786,1.92722,405.086,33.427,45.068,45.000,0.00,0.09,-272.71,-272.77,5,671,-4,22.9,4.1,-20.9,22.7,4.3,-20.6,5.73,1.58,-12.4,27.2
2015-03-31 00:12:00,0.0,1.92473,0.00045,404.517,0.065,0.1505,0.0018,139.997,44.998,31996.77174,1.92758,405.248,33.309,45.068,45.000,0.00,0.09,-272.72,-272.77,4,671,-4,22.9,4.1,-21.1,22.7,4.3,-20.6,5.73,1.94,-12.4,27.2
2015-03-31 00:13:00,0.0,1.92498,0.00038,404.675,0.045,0.1471,0.0016,139.999,44.998,31989.73647,1.92778,405.392,33.223,45.068,45.000,0.00,0.09,-272.71,-272.77,5,671,-4,22.9,4.0,-21.3,22.7,4.3,-20.6,5.73,1.60,-12.4,27.2
2015-03-31 00:14:00,0.0,1.92495,0.00033,404.668,0.055,0.1455,0.0017,139.998,44.998,31986.53884,1.92774,405.377,33.185,45.068,45.000,0.00,0.09,-272.71,-272.77,4,671,-4,22.9,4.0,-21.4,22.7,4.3,-20.6,5.73,1.84,-12.4,27.1
2015-03-31 00:15:00,0.0,1.92495,0.00032,404.820,0.061,0.1440,0.0015,140.002,44.998,31982.13414,1.92768,405.526,33.168,45.067,45.000,0.00,0.09,-272.72,-272.77,5,671,-4,22.8,3.9,-21.6,22.6,4.3,-20.6,5.73,1.81,-12.4,27.0
2015-03-31 00:16:00,0.0,1.92503,0.00033,404.869,0.079,0.1427,0.0015,139.997,44.999,31977.49297,1.92771,405.562,33.188,45.067,45.000,0.00,0.09,-272.72,-272.78,4,671,-4,22.8,3.9,-21.7,22.6,4.3,-20.6,5.73,1.62,-12.4,27.1
2015-03-31 00:17:00,0.0,1.92489,0.00035,404.938,0.066,0.1422,0.0022,139.999,44.999,31975.35450,1.92761,405.633,33.196,45.067,44.999,0.00,0.09,-272.72,-272.78,5,670,-4,22.8,3.9,-21.7,22.6,4.3,-20.6,5.73,1.85,-12.5,27.1
2015-03-31 00:18:00,0.0,1.92430,0.00034,404.733,0.098,0.1420,0.0016,140.001,45.000,31977.33270,1.92700,405.424,33.244,45.067,45.000,0.00,0.09,-272.71,-272.77,5,670,-4,22.7,3.9,-21.7,22.6,4.3,-20.6,5.73,1.83,-12.5,27.0
2015-03-31 00:19:00,0.0,1.92433,0.00037,404.748,0.139,0.1419,0.0017,140.001,45.000,31976.77938,1.92704,405.445,33.291,45.067,44.999,0.00,0.09,-272.72,-272.78,4,670,-4,22.7,3.9,-21.7,22.5,4.3,-20.6,5.73,1.65,-12.5,26.9
2015-03-31 00:20:00,0.0,1.92393,0.00030,404.453,0.081,0.1410,0.0025,139.998,45.000,31977.70821,1.92661,405.150,33.358,45.067,45.000,0.00,0.09,-272.72,-272.78,5,669,-4,22.7,3.9,-21.8,22.5,4.3,-20.6,5.73,1.71,-12.5,27.0
2015-03-31 00:21:00,0.0,1.92443,0.00052,404.716,0.254,0.1404,0.0020,139.996,45.001,31977.16656,1.92709,405.392,33.477,45.068,45.000,0.00,0.09,-272.71,-272.77,5,668,-4,22.7,3.9,-21.8,22.6,4.3,-20.6,5.73,1.84,-12.5,27.0
2015-03-31 00:22:00,0.0,1.92380,0.00033,404.373,0.090,0.1398,0.0020,140.000,45.002,31979.28099,1.92646,405.060,33.606,45.068,45.001,0.00,0.09,-272.72,-272.77,4,668,-4,22.7,3.8,-21.9,22.6,4.4,-20.6,5.73,1.85,-12.5,27.1
2015-03-31 00:23:00,0.0,1.92408,0.00024,404.479,0.045,0.1400,0.0012,140.002,45.002,31982.19341,1.92676,405.161,33.763,45.069,45.001,0.00,0.09,-272.72,-272.77,4,670,-4,22.7,3.9,-21.8,22.6,4.3,-20.6,5.73,1.79,-12.5,27.1
2015-03-31 00:24:00,0.0,1.92463,0.00041,404.642,0.114,0.1394,0.0010,140.002,45.003,31985.88832,1.92726,405.317,33.934,45.069,45.002,0.00,0.09,-272.72,-272.77,4,668,-2,22.8,3.9,-21.8,22.6,4.3,-20.6,5.73,1.72,-12.5,27.2
2015-03-31 00:25:00,0.0,1.92390,0.00051,404.374,0.093,0.1406,0.0016,139.997,45.003,31989.54453,1.92657,405.064,34.121,45.069,45.002,0.00,0.09,-272.71,-272.77,5,667,-4,22.8,3.9,-21.8,22.7,4.3,-20.6,5.73,1.70,-12.5,27.3
2015-03-31 00:26:00,0.0,1.92406,0.00034,404.392,0.118,0.1398,0.0014,139.999,45.003,31991.44662,1.92671,405.078,34.302,45.069,45.002,0.00,0.09,-272.71,-272.77,5,667,-4,22.8,3.8,-21.8,22.7,4.3,-20.6,5.73,1.72,-12.5,27.3
2015-03-31 00:27:00,0.0,1.92390,0.00046,404.255,0.054,0.1389,0.0017,140.000,45.003,31996.34988,1.92654,404.932,34.471,45.069,45.001,0.00,0.09,-272.72,-272.77,4,666,-4,22.9,3.8,-21.9,22.7,4.3,-20.6,5.73,1.77,-12.5,27.4
2015-03-31 00:28:00,0.0,1.92354,0.00026,404.188,0.061,0.1388,0.0014,140.002,45.003,32003.13697,1.92619,404.867,34.646,45.069,45.001,0.00,0.09,-272.71,-272.77,4,666,-4,22.9,3.8,-21.9,22.7,4.3,-20.6,5.73,1.81,-12.5,27.4
2015-03-31 00:29:00,0.0,1.92361,0.00041,404.156,0.035,0.1365,0.0021,140.000,45.003,32006.15314,1.92621,404.820,34.804,45.069,45.001,0.00,0.09,-272.71,-272.77,4,666,-4,22.9,3.8,-22.0,22.8,4.3,-20.6,5.73,1.83,-12.5,27.5
2015-03-31 00:30:00,0.0,1.92389,0.00035,404.132,0.031,0.1354,0.0013,139.997,45.003,32006.56143,1.92646,404.793,34.973,45.068,45.001,0.00,0.09,-272.72,-272.77,5,666,-4,22.9,3.7,-22.1,22.8,4.3,-20.6,5.73,1.81,-12.5,27.6
2015-03-31 00:31:00,0.0,1.92364,0.00031,404.152,0.027,0.1338,0.0019,140.002,45.003,32013.95331,1.92618,404.804,35.125,45.068,45.001,0.00,0.09,-272.72,-272.77,5,665,-4,23.0,3.7,-22.2,22.8,4.3,-20.6,5.73,1.78,-12.5,27.6
2015-03-31 00:32:00,0.0,1.92395,0.00022,404.202,0.082,0.1342,0.0018,139.998,45.003,32016.67491,1.92647,404.854,35.273,45.068,45.000,0.00,0.09,-272.72,-272.77,5,665,-4,23.0,3.7,-22.2,22.9,4.3,-20.6,5.73,1.76,-12.5,27.7
2015-03-31 00:33:00,0.0,1.92432,0.00036,404.331,0.078,0.1346,0.0014,139.999,45.003,32023.23396,1.92689,404.985,35.416,45.068,45.000,0.00,0.09,-272.72,-272.77,4,665,-4,23.1,3.7,-22.2,22.9,4.2,-20.7,5.73,1.73,-12.5,27.8
2015-03-31 00:34:00,0.0,1.92461,0.00051,404.397,0.153,0.1346,0.0019,140.000,45.002,32028.68698,1.92711,405.052,35.512,45.067,44.999,0.00,0.09,-272.71,-272.77,4,666,-4,23.0,3.7,-22.2,22.9,4.2,-20.7,5.73,1.70,-12.5,27.8
2015-03-31 00:35:00,0.0,1.92500,0.00033,404.729,0.074,0.1346,0.0021,140.000,45.001,32031.41055,1.92755,405.382,35.558,45.067,44.999,0.00,0.09,-272.71,-272.76,4,665,-4,23.0,3.7,-22.1,22.9,4.2,-20.7,5.73,1.70,-12.5,27.8
2015-03-31 00:36:00,0.0,1.92468,0.00038,404.620,0.058,0.1368,0.0017,139.996,45.001,32032.69651,1.92728,405.287,35.561,45.066,44.998,0.00,0.09,-272.72,-272.77,5,666,-4,23.0,3.8,-22.0,22.9,4.2,-20.8,5.73,1.78,-12.5,27.8
2015-03-31 00:37:00,0.0,1.92513,0.00035,404.776,0.042,0.1384,0.0018,140.001,45.001,32037.67098,1.92775,405.451,35.516,45.065,44.998,0.00,0.09,-272.71,-272.77,5,666,-4,22.9,3.8,-21.8,22.9,4.2,-20.8,5.73,1.86,-12.5,27.9
2015-03-31 00:38:00,0.0,1.92526,0.00037,404.865,0.037,0.1414,0.0018,140.002,45.000,32038.06597,1.92797,405.553,35.454,45.065,44.998,0.00,0.09,-272.71,-272.76,4,666,-4,22.9,3.9,-21.7,22.9,4.2,-20.8,5.73,1.80,-12.4,27.9
2015-03-31 00:39:00,0.0,1.92473,0.00046,404.763,0.057,0.1437,0.0020,139.999,44.999,32038.68912,1.92744,405.466,35.397,45.066,44.999,0.00,0.09,-272.71,-272.76,4,666,-4,22.9,3.9,-21.4,22.9,4.2,-20.9,5.73,1.67,-12.4,27.9
2015-03-31 00:40:00,0.0,1.92476,0.00034,404.787,0.059,0.1468,0.0017,139.999,44.999,32038.08044,1.92758,405.504,35.326,45.066,44.999,0.00,0.09,-272.71,-272.78,5,667,-4,22.9,4.0,-21.3,22.8,4.2,-20.9,5.73,1.69,-12.4,27.8
2015-03-31 00:41:00,0.0,1.92442,0.00036,404.464,0.148,0.1477,0.0022,140.002,44.998,32035.59682,1.92722,405.184,35.237,45.066,44.999,0.00,0.09,-272.71,-272.77,4,667,-4,22.9,4.0,-21.2,22.9,4.2,-20.9,5.73,1.85,-12.4,27.7
2015-03-31 00:42:00,0.0,1.92492,0.00034,404.731,0.038,0.1470,0.0018,140.001,44.998,32034.74351,1.92769,405.447,35.137,45.067,45.000,0.00,0.09,-272.71,-272.77,4,667,-4,22.9,4.0,-21.3,22.8,4.2,-20.9,5.73,1.83,-12.4,27.6
2015-03-31 00:43:00,0.0,1.92450,0.00049,404.428,0.184,0.1462,0.0019,139.997,44.998,32031.52591,1.92731,405.153,35.017,45.067,45.000,0.00,0.09,-272.72,-272.78,5,667,-4,22.9,4.0,-21.3,22.8,4.2,-20.9,5.73,1.63,-12.4,27.6
2015-03-31 00:44:00,0.0,1.92439,0.00045,404.407,0.162,0.1436,0.0017,139.998,44.998,32030.51591,1.92709,405.103,34.884,45.067,45.000,0.00,0.09,-272.71,-272.77,4,668,-4,22.9,3.9,-21.5,22.8,4.1,-20.9,5.73,1.73,-12.4,27.6
2015-03-31 00:45:00,0.0,1.92438,0.00051,404.460,0.128,0.1426,0.0015,140.000,44.998,32029.47661,1.92716,405.158,34.759,45.067,45.000,0.00,0.09,-272.71,-272.77,4,668,-4,23.0,3.9,-21.6,22.8,4.1,-21.0,5.73,1.90,-12.4,27.5
2015-03-31 00:46:00,0.0,1.92432,0.00043,404.328,0.119,0.1408,0.0015,140.001,44.998,32026.66175,1.92693,405.015,34.624,45.068,45.000,0.00,0.09,-272.72,-272.77,5,669,-4,23.0,3.9,-21.7,22.9,4.1,-21.0,5.73,1.62,-12.4,27.4
2015-03-31 00:47:00,0.0,1.92421,0.00045,404.216,0.029,0.1402,0.0020,139.998,44.998,32024.81928,1.92690,404.901,34.481,45.067,45.000,0.00,0.09,-272.72,-272.77,3,669,-4,23.0,3.8,-21.7,22.9,4.2,-20.9,5.73,1.82,-12.4,27.2
2015-03-31 00:48:00,0.0,1.92412,0.00036,404.226,0.053,0.1400,0.0013,140.001,44.998,32021.29944,1.92676,404.909,34.288,45.067,45.000,0.00,0.09,-272.71,-272.77,5,670,-4,23.0,3.8,-21.8,22.8,4.1,-21.0,5.73,1.74,-12.4,27.1
2015-03-31 00:49:00,0.0,1.92437,0.00036,404.226,0.043,0.1390,0.0017,140.001,44.997,32016.65252,1.92703,404.903,34.086,45.067,45.000,0.00,0.09,-272.71,-272.77,3,671,-4,23.0,3.8,-21.8,22.8,4.1,-21.0,5.73,1.72,-12.4,27.0
2015-03-31 00:50:00,0.0,1.92413,0.00023,404.170,0.033,0.1379,0.0021,140.000,44.997,32013.05862,1.92673,404.842,33.898,45.067,45.000,0.00,0.09,-272.73,-272.77,5,671,-4,23.0,3.8,-21.9,22.8,4.2,-21.0,5.73,1.82,-12.4,27.0
2015-03-31 00:51:00,0.0,1.92426,0.00038,404.267,0.124,0.1377,0.0018,139.997,44.997,32006.70152,1.92687,404.932,33.741,45.068,45.000,0.00,0.09,-272.71,-272.77,3,671,-4,22.9,3.8,-22.0,22.8,4.1,-21.0,5.73,1.64,-12.4,27.0
2015-03-31 00:52:00,0.0,1.92421,0.00038,404.227,0.048,0.1370,0.0022,139.998,44.997,32001.22188,1.92681,404.899,33.613,45.068,45.000,0.00,0.09,-272.71,-272.77,5,671,-4,22.9,3.7,-22.0,22.8,4.2,-21.0,5.73,1.90,-12.4,27.0
2015-03-31 00:53:00,0.0,1.92427,0.00036,404.368,0.059,0.1362,0.0016,139.996,44.998,31996.14295,1.92687,405.030,33.488,45.068,45.000,0.00,0.09,-272.72,-272.77,3,671,-4,22.9,3.7,-22.1,22.7,4.2,-20.9,5.73,1.58,-12.4,27.1
2015-03-31 00:54:00,0.0,1.92436,0.00038,404.333,0.058,0.1356,0.0019,139.999,44.998,31992.66038,1.92693,404.993,33.399,45.068,45.000,0.00,0.09,-272.72,-272.77,5,671,-4,22.9,3.7,-22.1,22.7,4.2,-20.9,5.73,1.93,-12.4,27.1
2015-03-31 00:55:00,0.0,1.92416,0.00037,404.401,0.050,0.1357,0.0017,140.003,44.998,31989.10548,1.92674,405.064,33.304,45.067,45.000,0.00,0.09,-272.70,-272.77,4,671,-4,22.9,3.7,-22.1,22.7,4.2,-21.0,5.73,1.61,-12.4,27.1
2015-03-31 00:56:00,0.0,1.92423,0.00030,404.264,0.039,0.1360,0.0016,139.999,44.998,31984.30126,1.92680,404.927,33.247,45.067,45.000,0.00,0.09,-272.72,-272.77,5,671,-4,22.9,3.7,-22.1,22.7,4.2,-21.0,5.73,1.84,-12.4,27.1
2015-03-31 00:57:00,0.0,1.92402,0.00027,404.306,0.071,0.1356,0.0021,139.998,44.998,31982.70202,1.92661,404.965,33.179,45.067,44.999,0.00,0.09,-272.72,-272.78,3,671,-4,22.9,3.7,-22.1,22.7,4.2,-21.0,5.73,1.78,-12.4,27.1
2015-03-31 00:58:00,0.0,1.92429,0.00038,404.568,0.170,0.1351,0.0017,140.000,44.999,31977.28648,1.92680,405.223,33.129,45.067,44.999,0.00,0.09,-272.71,-272.77,5,671,-4,22.8,3.7,-22.2,22.6,4.2,-21.0,5.73,1.64,-12.4,27.0
2015-03-31 00:59:00,0.0,1.92421,0.00034,404.536,0.086,0.1345,0.0014,139.996,44.999,31972.50043,1.92679,405.195,33.126,45.067,44.999,0.00,0.09,-272.71,-272.77,4,671,-4,22.8,3.7,-22.2,22.6,4.2,-21.1,5.73,1.92,-12.4,26.9
2015-03-31 01:00:00,0.0,1.92434,0.00031,404.572,0.117,0.1341,0.0018,139.999,44.999,31969.71319,1.92689,405.225,33.144,45.067,44.999,0.00,0.09,-272.72,-272.78,5,670,-4,22.8,3.7,-22.3,22.6,4.1,-21.1,5.73,1.72,-12.4,26.9
2015-03-31 01:01:00,0.0,1.92434,0.00036,404.320,0.062,0.1341,0.0012,139.999,45.000,31968.48565,1.92688,404.979,33.190,45.067,45.000,0.00,0.09,-272.72,-272.77,5,670,-4,22.8,3.7,-22.2,22.6,4.2,-21.1,5.73,1.66,-12.4,26.9
2015-03-31 01:02:00,0.0,1.92420,0.00039,404.478,0.220,0.1343,0.0020,140.002,45.000,31971.43519,1.92676,405.132,33.241,45.067,45.000,0.00,0.09,-272.72,-272.77,4,670,-4,22.7,3.7,-22.3,22.6,4.1,-21.1,5.73,1.86,-12.4,26.9
2015-03-31 01:03:00,0.0,1.92421,0.00044,404.646,0.431,0.1350,0.0013,140.001,45.000,31973.55163,1.92676,405.277,33.306,45.067,45.000,0.00,0.09,-272.72,-272.77,3,669,-4,22.7,3.7,-22.3,22.5,4.2,-21.1,5.73,1.84,-12.4,26.9
2015-03-31 01:04:00,0.0,1.92411,0.00033,404.685,0.379,0.1340,0.0019,139.996,45.001,31973.34539,1.92668,405.369,33.361,45.068,45.000,0.00,0.09,-272.72,-272.77,5,669,-4,22.7,3.7,-22.3,22.5,4.2,-21.1,5.73,1.71,-12.4,27.0
2015-03-31 01:05:00,0.0,1.92391,0.00040,404.277,0.056,0.1350,0.0020,140.001,45.001,31975.70706,1.92646,404.937,33.476,45.068,45.001,0.00,0.09,-272.71,-272.76,4,669,-4,22.7,3.8,-22.2,22.5,4.1,-21.2,5.73,1.69,-12.4,27.0
2015-03-31 01:06:00,0.0,1.92417,0.00041,404.267,0.030,0.1353,0.0014,140.000,45.002,31975.14125,1.92676,404.926,33.631,45.069,45.001,0.00,0.09,-272.71,-272.77,4,668,-4,22.7,3.7,-22.2,22.6,4.1,-21.2,5.73,1.74,-12.4,27.1
2015-03-31 01:07:00,0.0,1.92408,0.00039,404.245,0.032,0.1356,0.0012,139.999,45.002,31979.09616,1.92664,404.907,33.811,45.070,45.002,0.00,0.09,-272.71,-272.78,4,667,-4,22.8,3.8,-22.1,22.6,4.1,-21.1,5.73,1.80,-12.5,27.2
2015-03-31 01:08:00,0.0,1.92419,0.00053,404.395,0.221,0.1365,0.0015,139.998,45.003,31983.12688,1.92675,405.060,33.996,45.070,45.002,0.00,0.09,-272.71,-272.77,5,667,-4,22.8,3.8,-22.0,22.6,4.1,-21.1,5.73,1.83,-12.5,27.2
2015-03-31 01:09:00,0.0,1.92425,0.00053,404.303,0.127,0.1363,0.0016,140.000,45.003,31987.47198,1.92688,404.968,34.189,45.070,45.002,0.00,0.09,-272.71,-272.77,5,667,-4,22.8,3.8,-22.0,22.7,4.1,-21.2,5.73,1.82,-12.5,27.3
2015-03-31 01:10:00,0.0,1.92424,0.00046,404.843,0.445,0.1368,0.0013,139.999,45.003,31994.98089,1.92680,405.491,34.381,45.070,45.002,0.00,0.09,-272.72,-272.78,4,666,-5,22.9,3.8,-22.0,22.7,4.1,-21.2,5.73,1.78,-12.5,27.3
2015-03-31 01:11:00,0.0,1.92445,0.00040,404.833,0.343,0.1378,0.0019,140.002,45.003,31999.23631,1.92708,405.513,34.575,45.069,45.001,0.00,0.09,-272.72,-272.77,4,669,-4,22.9,3.8,-21.9,22.7,4.1,-21.2,5.73,1.75,-12.5,27.4
2015-03-31 01:12:00,0.0,1.92450,0.00053,404.729,0.288,0.1374,0.0013,140.000,45.003,32002.76493,1.92710,405.404,34.770,45.069,45.001,0.00,0.09,-272.71,-272.77,4,666,-4,22.9,3.8,-22.0,22.7,4.1,-21.2,5.73,1.73,-12.5,27.4
2015-03-31 01:13:00,0.0,1.92453,0.00038,404.506,0.205,0.1373,0.0017,139.999,45.003,32005.88014,1.92713,405.178,34.976,45.068,45.001,0.00,0.09,-272.72,-272.77,4,666,-4,22.9,3.8,-22.0,22.7,4.1,-21.1,5.73,1.72,-12.5,27.5
2015-03-31 01:14:00,0.0,1.92432,0.00032,404.605,0.119,0.1375,0.0022,140.001,45.003,32013.37574,1.92693,405.274,35.140,45.068,45.000,0.00,0.09,-272.72,-272.77,5,666,-4,22.9,3.8,-22.0,22.7,4.1,-21.2,5.73,1.73,-12.4,27.5
2015-03-31 01:15:00,0.0,1.92460,0.00045,405.018,0.121,0.1384,0.0021,139.999,45.003,32016.97773,1.92725,405.685,35.293,45.067,45.000,0.00,0.09,-272.71,-272.77,5,665,-4,22.9,3.8,-21.9,22.8,4.1,-21.2,5.73,1.75,-12.4,27.6
2015-03-31 01:16:00,0.0,1.92448,0.00028,404.943,0.119,0.1392,0.0018,140.000,45.003,32022.23239,1.92712,405.632,35.414,45.067,45.000,0.00,0.09,-272.72,-272.77,5,665,-4,22.9,3.8,-21.8,22.8,4.1,-21.2,5.73,1.77,-12.4,27.7
2015-03-31 01:17:00,0.0,1.92424,0.00049,404.710,0.106,0.1386,0.0019,140.003,45.003,32028.96903,1.92691,405.390,35.535,45.067,45.000,0.00,0.09,-272.72,-272.77,4,665,-4,22.9,3.8,-21.8,22.8,4.1,-21.2,5.73,1.78,-12.4,27.7
2015-03-31 01:18:00,0.0,1.92403,0.00035,404.777,0.152,0.1399,0.0022,139.997,45.002,32035.65997,1.92665,405.452,35.624,45.067,45.000,0.00,0.09,-272.71,-272.77,4,665,-4,23.0,3.8,-21.7,22.9,4.1,-21.1,5.73,1.81,-12.4,27.8
2015-03-31 01:19:00,0.0,1.92430,0.00029,404.758,0.110,0.1412,0.0013,140.000,45.002,32039.86015,1.92698,405.451,35.686,45.067,44.999,0.00,0.09,-272.71,-272.77,4,665,-4,23.0,3.9,-21.6,22.9,4.1,-21.1,5.73,1.83,-12.4,27.8
2015-03-31 01:20:00,0.0,1.92407,0.00034,404.811,0.199,0.1421,0.0015,139.999,45.001,32042.82769,1.92679,405.511,35.728,45.067,44.999,0.00,0.09,-272.71,-272.77,5,665,-4,22.9,3.9,-21.6,22.9,4.1,-21.2,5.73,1.79,-12.4,27.8
2015-03-31 01:21:00,0.0,1.92427,0.00041,404.778,0.098,0.1424,0.0015,140.002,45.001,32043.50678,1.92696,405.467,35.746,45.066,44.999,0.00,0.09,-272.72,-272.77,5,666,-4,22.9,3.9,-21.6,22.9,4.1,-21.2,5.73,1.71,-12.4,27.8
2015-03-31 01:22:00,0.0,1.92394,0.00030,404.710,0.309,0.1417,0.0015,139.999,45.000,32045.97040,1.92661,405.390,35.712,45.065,44.998,0.00,0.09,-272.71,-272.77,4,666,-4,22.9,3.7,-22.4,22.9,4.1,-21.2,5.73,1.66,-12.4,27.9
2015-03-31 01:23:00,0.0,1.92412,0.00043,405.021,0.326,0.1424,0.0019,140.000,44.999,32044.56270,1.92683,405.722,35.660,45.065,44.998,0.00,0.09,-272.72,-272.78,4,666,-4,23.0,3.9,-21.6,22.9,4.1,-21.2,5.73,1.77,-12.4,27.9
2015-03-31 01:24:00,0.0,1.92423,0.00035,405.040,0.259,0.1438,0.0023,140.001,44.999,32044.83006,1.92694,405.733,35.594,45.065,44.998,0.00,0.09,-272.72,-272.78,5,666,-4,23.0,3.9,-21.5,22.9,4.1,-21.1,5.73,1.87,-12.3,27.8
2015-03-31 01:25:00,0.0,1.92408,0.00038,404.929,0.199,0.1451,0.0017,140.001,44.999,32043.86306,1.92686,405.642,35.475,45.066,44.999,0.00,0.09,-272.71,-272.77,5,667,-4,23.0,4.0,-21.3,22.9,4.1,-21.2,5.73,1.78,-12.3,27.8
2015-03-31 01:26:00,0.0,1.92445,0.00040,405.288,0.060,0.1462,0.0015,140.000,44.998,32043.73223,1.92721,405.998,35.370,45.066,44.999,0.00,0.09,-272.71,-272.77,4,667,-4,23.0,4.0,-21.3,22.9,4.1,-21.2,5.73,1.63,-12.3,27.7
2015-03-31 01:27:00,0.0,1.92402,0.00030,404.924,0.244,0.1477,0.0021,140.001,44.998,32041.44221,1.92683,405.657,35.236,45.067,45.000,0.00,0.09,-272.72,-272.78,4,667,-4,23.0,4.0,-21.2,22.9,4.1,-21.1,5.73,1.76,-12.3,27.6
2015-03-31 01:28:00,0.0,1.92434,0.00036,404.993,0.173,0.1497,0.0016,139.997,44.998,32038.79010,1.92716,405.717,35.066,45.067,45.000,0.00,0.09,-272.71,-272.77,5,667,-4,23.0,4.1,-21.1,22.9,4.1,-21.1,5.73,1.89,-12.3,27.6
2015-03-31 01:29:00,0.0,1.92456,0.00030,404.988,0.128,0.1505,0.0021,140.001,44.998,32035.57029,1.92741,405.723,34.923,45.068,45.001,0.00,0.09,-272.71,-272.77,3,668,-4,23.0,4.1,-21.0,22.9,4.1,-21.1,5.73,1.67,-12.3,27.6
2015-03-31 01:30:00,0.0,1.92474,0.00037,405.542,0.087,0.1505,0.0015,140.002,44.998,32033.94519,1.92761,406.271,34.777,45.068,45.001,0.00,0.09,-272.72,-272.77,5,668,-4,23.0,4.1,-21.0,22.9,4.1,-21.1,5.73,1.68,-12.3,27.6
2015-03-31 01:31:00,0.0,1.92452,0.00046,405.267,0.169,0.1508,0.0013,139.997,44.998,32032.35060,1.92742,406.018,34.628,45.068,45.001,0.00,0.09,-272.72,-272.77,4,669,-4,23.0,4.1,-21.0,22.9,4.1,-21.1,5.73,1.92,-12.3,27.4
2015-03-31 01:32:00,0.0,1.92448,0.00029,405.052,0.249,0.1503,0.0017,140.000,44.998,32030.75690,1.92731,405.790,34.469,45.068,45.001,0.00,0.09,-272.71,-272.77,5,669,-4,23.1,4.1,-21.0,22.9,4.1,-21.1,5.73,1.57,-12.3,27.2
2015-03-31 01:33:00,0.0,1.92401,0.00037,404.426,0.092,0.1468,0.0016,139.999,44.998,32027.42455,1.92682,405.148,34.283,45.068,45.001,0.00,0.09,-272.71,-272.77,4,670,-4,23.0,4.0,-21.3,22.9,4.1,-21.1,5.73,1.93,-12.3,27.2
2015-03-31 01:34:00,0.0,1.92408,0.00031,404.293,0.034,0.1434,0.0019,140.002,44.997,32021.82884,1.92680,404.995,34.116,45.068,45.000,0.00,0.09,-272.72,-272.77,5,670,-4,23.0,3.9,-21.5,22.9,4.1,-21.0,5.73,1.60,-12.3,27.1
2015-03-31 01:35:00,0.0,1.92430,0.00042,404.234,0.026,0.1406,0.0018,140.000,44.997,32015.68794,1.92697,404.921,33.972,45.067,45.000,0.00,0.09,-272.71,-272.78,3,671,-4,23.0,3.8,-21.8,22.9,4.1,-21.0,5.73,1.88,-12.3,27.1
2015-03-31 01:36:00,0.0,1.92416,0.00030,404.198,0.026,0.1393,0.0014,139.997,44.997,32010.61344,1.92681,404.876,33.834,45.067,45.000,0.00,0.09,-272.71,-272.77,5,671,-4,23.0,3.8,-21.9,22.8,4.1,-21.0,5.73,1.66,-12.3,27.1
2015-03-31 01:37:00,0.0,1.92406,0.00024,404.258,0.032,0.1381,0.0013,140.000,44.998,32006.52344,1.92668,404.931,33.690,45.067,45.000,0.00,0.09,-272.72,-272.78,3,671,-4,23.0,3.8,-21.9,22.8,4.1,-21.0,5.73,1.80,-12.3,27.1
2015-03-31 01:38:00,0.0,1.92405,0.00033,404.226,0.052,0.1380,0.0015,140.001,44.998,32003.20205,1.92666,404.901,33.574,45.067,45.000,0.00,0.09,-272.72,-272.77,5,671,-4,23.0,3.8,-22.0,22.8,4.2,-21.0,5.73,1.77,-12.3,27.2
2015-03-31 01:39:00,0.0,1.92398,0.00038,404.287,0.063,0.1374,0.0019,140.002,44.998,32000.23630,1.92659,404.954,33.445,45.067,45.000,0.00,0.09,-272.71,-272.77,3,671,-4,23.0,3.8,-22.0,22.8,4.2,-21.0,5.73,1.68,-12.3,27.3
2015-03-31 01:40:00,0.0,1.92377,0.00039,404.277,0.083,0.1380,0.0014,140.003,44.998,31996.69330,1.92638,404.950,33.341,45.067,45.000,0.00,0.09,-272.72,-272.77,5,671,-4,22.9,3.8,-22.0,22.7,4.2,-20.9,5.73,1.90,-12.3,27.2
2015-03-31 01:41:00,0.0,1.92370,0.00035,404.140,0.045,0.1364,0.0014,140.000,44.998,31992.22969,1.92630,404.809,33.271,45.067,45.000,0.00,0.09,-272.71,-272.77,4,671,-4,22.9,3.8,-22.0,22.7,4.2,-20.9,5.73,1.58,-12.3,27.1
2015-03-31 01:42:00,0.0,1.92387,0.00026,404.180,0.049,0.1366,0.0021,140.000,44.998,31984.53601,1.92646,404.845,33.240,45.067,44.999,0.00,0.09,-272.71,-272.77,5,671,-4,22.9,3.7,-22.1,22.7,4.2,-21.0,5.73,1.90,-12.3,27.1
2015-03-31 01:43:00,0.0,1.92395,0.00048,404.182,0.035,0.1377,0.0016,139.999,44.999,31979.56398,1.92656,404.851,33.249,45.067,44.999,0.00,0.09,-272.72,-272.76,4,671,-4,22.9,3.8,-22.1,22.7,4.2,-21.0,5.73,1.75,-12.3,27.0
2015-03-31 01:44:00,0.0,1.92381,0.00053,404.164,0.040,0.1373,0.0014,140.000,44.999,31977.24735,1.92644,404.835,33.254,45.067,44.999,0.00,0.09,-272.72,-272.78,4,670,-4,22.9,3.8,-22.0,22.7,4.2,-21.0,5.73,1.63,-12.3,27.1
2015-03-31 01:45:00,0.0,1.92377,0.00032,404.154,0.035,0.1373,0.0016,140.000,45.000,31977.68539,1.92637,404.823,33.304,45.067,45.000,0.00,0.09,-272.71,-272.77,5,670,-4,22.9,3.8,-22.0,22.6,4.2,-21.0,5.73,1.87,-12.3,27.1
2015-03-31 01:46:00,0.0,1.92358,0.00032,404.156,0.031,0.1387,0.0010,140.000,45.000,31977.28041,1.92624,404.833,33.331,45.067,45.000,0.00,0.09,-272.71,-272.76,4,670,-4,22.8,3.8,-21.9,22.6,4.2,-21.0,5.73,1.82,-12.3,27.0